Regional Weather Roundup
Issued by NWS Northern Indiana

Home | Current Version | Previous Version | Graphics & Text | Print | Product List | Glossary On
Versions: 1 2 3 4 5 6 7 8 9 10 11 12 13 14 15 16 17 18 19 20 21 22 23 24 25 26 27 28 29 30 31 32 33 34 35 36 37 38 39 40 41 42 43 44 45 46 47 48 49 50
000
ASUS43 KIWX 271300
RWRIWX

KIWX WEATHER ROUNDUP
NATIONAL WEATHER SERVICE NORTHERN INDIANA
900 AM EDT MON JUL 27 2015

NOTE: "FAIR" INDICATES FEW OR NO CLOUDS BELOW 12,000 FEET WITH NO
SIGNIFICANT WEATHER AND/OR OBSTRUCTIONS TO VISIBILITY.

* THESE STATIONS ARE NOT UNDER NWS QUALITY CONTROL. THEY ALSO MAY NOT
  REPORT WEATHER SUCH AS PRECIPITATION OR FOG.

INZ001>027-271400-
NORTHERN INDIANA

CITY           SKY/WX    TMP DP  RH WIND       PRES   REMARKS
GARY*          MOSUNNY   75  73  94 CALM      29.99S HAZE
SOUTH BEND     SUNNY     76  63  64 E6        30.02S
GOSHEN         SUNNY     74  62  66 E9        30.01S
ANGOLA*        SUNNY     73  66  78 E3        30.03S
FORT WAYNE     PTSUNNY   71  62  73 E5        30.03R

$$
INZ028>050-271400-
CENTRAL INDIANA

CITY           SKY/WX    TMP DP  RH WIND       PRES   REMARKS
LAFAYETTE      MOSUNNY   73  70  90 E5        29.98R
KOKOMO*        PTSUNNY   73  70  88 E5        29.99S
MUNCIE*        CLOUDY    73  70  90 CALM      30.00R
INDIANAPOLIS   CLOUDY    74  70  87 E7        29.98R FOG

$$
MIZ043>046-050>051-056>058-064>065-071>073-077>080-271400-
SOUTHWEST LOWER MICHIGAN

CITY           SKY/WX    TMP DP  RH WIND       PRES   REMARKS
BATTLE CREEK   SUNNY     76  66  71 NE3       30.05R
BENTON HARBOR  SUNNY     75  64  68 E6        30.01S
COLDWATER*     SUNNY     72  63  73 E3        30.04S
HILLSDALE*     SUNNY     74  66  75 E3        30.05R
HOLLAND        SUNNY     76  65  68 E5        30.04R
GRAND RAPIDS   MOSUNNY   73  66  78 E5        30.05R
KALAMAZOO      SUNNY     75  65  70 CALM      30.04R
STURGIS*       SUNNY     73  64  73 E6        30.03R
THREE RIVERS*  FAIR      73  64  74 CALM      30.04R

$$
OHZ001>008-015>018-024>025-271400-
NORTHWEST OHIO

CITY           SKY/WX    TMP DP  RH WIND       PRES   REMARKS
DEFIANCE       SUNNY     73  62  68 E3        30.03R
FINDLAY        SUNNY     74  64  71 E9        30.01S
TOLEDO EXPRESS SUNNY     74  65  73 E3        30.02R
TOLEDO METCALF SUNNY     77  66  68 NE6       30.02S
LIMA           PTSUNNY   72  60  66 SE5       30.03R

$$
AND FOR LAKE MICHIGAN COASTAL AND OPEN LAKE BUOY OBSERVATIONS

STATION/POSITION TEMP    WIND        PRES    VSBY  WAVE
                 AIR SEA DIR/SP/G                  HT/PER
                 (F)     (DEG/KT/KT) (MB)    (MI)  (FT/S)
CALUMET HARBOR    73     100/  4/  5   N/A
MICHIGAN CITY     71     100/  5/  8   N/A
BURNS HARBOR      73      90/  8/ 11 1015.9R
SAINT JOSEPH      70      CALM  /  2 1016.3R
4 MI NW BRIDGMAN  72 73  140/  4/  4   N/A           0
MICHIGAN CITY     72 74  120/  8/ 10   N/A           1/ 2

$$
&&


USA.gov is the U.S. government's official web portal to all federal, state and local government web resources and services.